Location: Beloeil
(45.5670°N, 73.2000°W)
Time: 08:48:52
(UTC-05:00)

Daily predictions for brighter satellites

Satellite Brightness Start Highest point End
(mag) Time Altitude Azimuth Time Altitude Azimuth Time Altitude Azimuth
Cosmos 2278 Rocket 2.3 16:32:40 10° SSW 16:38:17 73° ESE 16:43:57 10° NNE
SL-8 Rocket 4.1 16:32:06 10° N 16:38:19 89° W 16:44:28 10° S
MTI 4.0 16:36:26 10° N 16:39:45 78° WNW 16:43:01 10° SSW
CZ-2C R/B 2.9 16:35:10 10° SE 16:39:54 41° ENE 16:44:45 10° N
PAYLOAD A 4.0 16:39:10 10° SSE 16:44:01 64° ENE 16:49:07 10° N
NOSS 3-4 (A) 4.1 16:37:45 10° NNW 16:44:22 45° NE 16:51:20 10° ESE
NOSS 3-4 (C) 4.1 16:37:51 10° NNW 16:44:27 45° NE 16:51:25 10° ESE
Cosmos 1666 4.5 16:44:21 10° NE 16:46:18 13° ENE 16:48:14 10° E
Genesis I 4.5 16:44:36 10° NW 16:48:24 47° WSW 16:52:08 10° SSE
Cosmos 1833 Rocket 2.8 16:44:44 10° NNW 16:50:16 52° ENE 16:55:44 10° SE
SMAP 3.3 16:47:08 10° SE 16:51:35 47° ENE 16:56:04 10° N
BREEZE-M DEB (TANK) 1.5 16:50:17 10° WSW 16:52:33 64° NNW 16:54:46 11° ENE
NOSS 3-3 (A) 4.1 16:46:45 10° SW 16:52:59 90° SE 16:59:47 10° NE
Cosmos 2366 rocket 4.1 16:46:40 10° N 16:53:03 87° E 16:59:20 10° S
NOSS 3-3 (C) 4.1 16:46:51 10° SW 16:53:05 89° SE 16:59:53 10° NE
Meteor 1-18 Rocket 4.3 16:51:43 10° S 16:57:25 84° E 17:03:16 10° NNE
Intercosmos 25 3.8 16:58:14 10° NNE 17:01:01 27° ENE 17:03:57 10° SE
Tiangong 1 1.8 16:58:47 10° WSW 17:01:42 44° S 17:04:35 10° E
Cosmos 2082 Rocket 2.2 16:56:06 10° NNW 17:01:47 73° ENE 17:07:28 10° SSE
Okean 1 3.3 16:58:01 10° S 17:02:04 75° E 17:06:09 10° NNE
SJ-12 3.9 16:58:16 10° SSE 17:02:20 64° ENE 17:06:27 10° N
Cosmos 1346 Rocket 2.9 16:59:07 10° S 17:02:53 53° E 17:06:41 10° NNE
Cosmos 407 Rocket 4.4 16:59:55 10° N 17:04:07 25° NE 17:08:21 10° ESE
CZ-3B DEB 2.3 17:01:00 10° WSW 17:04:43 79° NNW 17:13:45 11° NE
Cosmos 2218 Rocket 4.5 16:59:58 10° NNW 17:06:12 67° W 17:12:18 10° S
ERBS 3.8 17:03:59 10° NNW 17:06:38 21° NNE 17:08:22 15° ENE
Cosmos 1500 3.1 17:04:20 10° N 17:08:12 81° E 17:12:04 10° S
AQUARIUS 4.1 17:04:21 10° SSE 17:08:49 69° ENE 17:13:18 10° N
BREEZE-M DEB (TANK) 4.3 17:01:58 10° W 17:10:56 55° N 17:13:39 16° ENE
COSMO-SKYMED 1 3.8 17:09:03 11° NE 17:12:15 23° E 17:15:41 10° SE
Cosmos 921 Rocket 3.2 17:08:34 10° S 17:12:42 50° ESE 17:16:57 10° NNE
Cosmos 1743 3.0 17:09:23 10° N 17:13:07 43° ENE 17:16:48 10° SSE
Cosmos 1025 Rocket 4.0 17:12:25 10° SSE 17:16:08 27° E 17:19:40 11° NNE
ISS -2.0 17:16:25 10° WNW 17:19:18 27° N 17:20:54 18° NE
Cosmos 1821 Rocket 4.1 17:19:57 10° N 17:25:53 51° ENE 17:31:48 10° SSE
Cosmos 1536 Rocket 4.4 17:23:16 10° SSW 17:27:40 54° WNW 17:32:05 10° N
Cosmos 1371 Rocket 4.3 17:24:37 10° S 17:29:46 50° ESE 17:34:18 13° NNE
Meteor 2-16 Rocket 4.4 17:25:20 10° N 17:31:24 68° E 17:37:27 10° SSE
Meteor 2-21 Rocket 4.4 17:25:42 10° N 17:31:55 82° E 17:38:04 10° S
Timation 1 Rocket 4.3 17:26:19 10° SSW 17:32:16 78° ESE 17:37:57 12° NNE
Meteor 1-19 Rocket 4.3 17:27:54 10° S 17:33:37 62° E 17:39:25 10° NNE
Cosmos 1605 Rocket 4.5 17:30:51 10° N 17:36:37 36° ENE 17:42:15 10° SE
Cosmos 1484 Rocket 2.7 17:33:47 10° SSE 17:37:25 54° ENE 17:41:04 10° N
YAOGAN 1 3.0 17:33:19 10° S 17:37:37 65° WSW 17:41:56 10° NNW
CORIOLIS 4.4 17:32:50 10° S 17:38:13 74° WSW 17:43:38 10° NNW
Cosmos 2058 Rocket 3.9 17:35:39 10° NNE 17:39:34 29° ENE 17:43:26 10° SE
Meteor 2-9 Rocket 4.2 17:35:03 10° N 17:40:22 53° ENE 17:45:33 10° SSE
Cosmos 2369 Rocket 3.6 17:37:32 10° SE 17:40:59 18° ESE 17:40:59 18° ESE
SPOT 3 Rocket 4.2 17:37:14 10° S 17:42:19 58° WSW 17:47:27 10° NNW
NOSS 2-1 (D) 3.3 17:39:00 10° SW 17:42:51 89° NW 17:45:29 23° NE
BREEZE M DEB (TANK) 3.1 17:35:13 10° SW 17:43:12 53° SSE 17:44:40 30° E
NOSS 2-1 (C) 3.3 17:39:39 10° SW 17:43:32 90° SSW 17:46:09 24° NE
Meteor 1-15 Rocket 4.4 17:43:55 10° N 17:49:42 54° ENE 17:55:21 10° SSE
NOSS 7 (D) 4.4 17:47:20 10° SSW 17:50:43 62° SE 17:51:28 46° ENE
Meteor 2-4 Rocket 3.5 17:48:24 10° S 17:53:40 64° E 17:58:57 10° NNE
Meteor 1-23 Rocket 4.2 17:49:21 10° S 17:54:55 58° E 18:00:08 11° NNE
Nadezhda 3 Rocket 4.2 17:50:53 10° SSW 17:57:05 73° W 18:03:25 10° N
Cosmos 1190 Rocket 3.9 17:52:01 10° NNW 17:57:18 76° ENE 18:02:30 10° SSE
OE (NEXTSAT) 4.3 17:54:24 10° W 17:58:00 81° N 17:58:41 56° ENE
Okean 2 3.6 17:55:31 10° SSE 17:59:31 48° E 18:00:16 42° ENE
Cosmos 1452 Rocket 4.4 17:55:16 10° SSE 17:59:28 29° ESE 17:59:28 29° ESE
SKYMED 2 3.4 17:57:39 21° NNE 18:00:33 71° ESE 18:04:53 10° S
NOSS 2-1 (E) 3.7 17:58:23 10° SW 18:02:18 67° NW 18:04:23 30° NNE
Cosmos 1340 3.9 18:00:53 10° SSE 18:02:54 26° SE 18:02:54 26° SE
METEOR-M 4.2 18:01:49 10° SE 18:06:57 51° ENE 18:12:08 10° N
CZ-4 R/B 4.2 18:06:22 10° SW 18:09:29 21° W 18:12:36 10° NW
BREEZE-M DEB (TANK) 3.4 18:04:02 10° WNW 18:09:55 49° N 18:11:01 39° NE
SL-8 R/B 3.8 18:07:48 10° W 18:12:33 60° N 18:13:33 48° NE
GEOS 3 Rocket 3.7 18:12:10 43° E 18:13:15 50° NE 18:18:12 10° NNW
USA 234 3.2 18:11:46 30° NE 18:15:20 87° NW 18:21:52 10° SW
IDEFIX/ARIANE 42P 4.5 18:11:33 10° SSW 18:16:04 30° W 18:20:38 10° NNW
Cosmos 1892 Rocket 3.4 18:12:16 10° S 18:16:35 68° E 18:17:17 57° NE
Cosmos 1727 Rocket 4.0 18:12:42 10° SSE 18:18:40 51° E 18:21:21 31° NE
Cosmos 1726 Rocket 3.5 18:15:06 10° N 18:19:35 85° W 18:24:03 10° S
Cosmos 1666 3.5 18:18:32 10° NNW 18:22:18 51° W 18:26:04 10° S
Cosmos 2278 Rocket 4.2 18:18:38 10° W 18:22:59 22° NW 18:27:21 10° N
DMSP B5D1-3 4.4 18:20:10 24° NNE 18:23:19 85° ESE 18:28:27 10° SSW
Meteor 2-8 Rocket 4.4 18:21:51 10° S 18:27:56 87° W 18:34:07 10° N
Cosmos 1934 Rocket 4.4 18:28:32 10° NNW 18:34:41 62° W 18:40:53 10° S
Tiangong 1 3.3 18:34:46 10° W 18:36:16 24° WSW 18:36:16 24° WSW
ERBS 4.5 18:40:20 10° NW 18:41:47 23° NW 18:41:47 23° NW
BREEZE M DEB (TANK) 3.9 18:40:05 10° WNW 18:44:10 69° SSW 18:50:56 25° SE
Cosmos 407 Rocket 4.3 18:41:26 10° NNW 18:46:24 49° WSW 18:51:21 10° S
COSMO-SKYMED 1 3.9 18:46:16 22° NNW 18:48:32 37° WNW 18:52:30 10° SW
Cosmos 1339 Rocket 4.2 18:46:40 10° S 18:52:43 81° E 18:53:26 70° NNE
Cosmos 2056 Rocket 4.5 18:47:45 10° SW 18:52:52 45° WNW 18:55:04 30° N
ISS -0.3 18:53:04 10° NW 18:53:35 14° NW 18:53:35 14° NW
Cosmos 1954 Rocket 4.3 18:57:42 10° NNW 19:02:50 62° WSW 19:03:05 61° WSW
Cosmos 2369 Rocket 3.1 19:18:58 10° SSW 19:22:50 44° SW 19:22:50 44° SW
CZ-3A R/B 4.2 19:26:39 10° WNW 19:32:04 32° NNW 19:32:04 32° NNW
CZ-3B DEB 4.0 19:33:42 10° WNW 19:40:22 50° N 19:41:22 49° NNE
USA 234 4.3 19:59:08 37° NW 19:59:08 37° NW 20:03:56 10° W
FALCON 9 R/B 4.4 20:03:37 10° W 20:13:37 27° SW 20:13:37 27° SW
